| time (UTC) | temp F | wind direction | speed MPH | gust MPH | rain 1hr in | rain 24hr in | rain mn in | humidity % | barometer mb |
| 20260505003529 | 32 | 1 | 1.0 | 6.0 | 0.00 | 0.06 | 0.00 | 91 | 1004.5 |
| 20260505003042 | 31 | 204 | 1.0 | 5.0 | 0.00 | 0.06 | 0.00 | 92 | 1004.5 |
| 20260505002530 | 31 | 137 | 1.0 | 4.0 | 0.00 | 0.06 | 0.00 | 92 | 1004.4 |
| 20260505002031 | 31 | 0 | 1.0 | 3.0 | 0.00 | 0.06 | 0.00 | 92 | 1004.4 |
| 20260505001547 | 31 | 110 | 0.0 | 3.0 | 0.00 | 0.06 | 0.00 | 92 | 1004.2 |
| 20260505001034 | 31 | 0 | 0.0 | 3.0 | 0.00 | 0.06 | 0.00 | 92 | 1004.1 |
| 20260505000530 | 31 | 105 | 0.0 | 3.0 | 0.00 | 0.06 | 0.00 | 92 | 1004.2 |
| 20260505000049 | 31 | 139 | 1.0 | 3.0 | 0.00 | 0.06 | 0.00 | 92 | 1004.2 |
| 20260504235530 | 32 | 161 | 0.0 | 2.0 | 0.00 | 0.06 | 0.00 | 92 | 1004.2 |
| 20260504235030 | 32 | 163 | 1.0 | 2.0 | 0.00 | 0.06 | 0.00 | 92 | 1004.3 |
| 20260504234609 | 32 | 0 | 0.0 | 2.0 | 0.00 | 0.06 | 0.00 | 92 | 1004.4 |
| 20260504234032 | 32 | 149 | 0.0 | 2.0 | 0.00 | 0.06 | 0.00 | 92 | 1004.3 |
| 20260504233530 | 32 | 126 | 0.0 | 2.0 | 0.00 | 0.06 | 0.00 | 93 | 1004.4 |
| 20260504233043 | 32 | 148 | 0.0 | 2.0 | 0.00 | 0.06 | 0.00 | 93 | 1004.4 |
| 20260504232530 | 32 | 0 | 0.0 | 2.0 | 0.00 | 0.06 | 0.00 | 93 | 1004.2 |
| 20260504232029 | 32 | 153 | 0.0 | 2.0 | 0.00 | 0.06 | 0.00 | 92 | 1004.4 |
| 20260504231550 | 32 | 0 | 0.0 | 2.0 | 0.00 | 0.06 | 0.00 | 92 | 1004.2 |
| 20260504231032 | 32 | 0 | 0.0 | 3.0 | 0.00 | 0.06 | 0.00 | 92 | 1004.3 |
| 20260504230531 | 32 | 0 | 0.0 | 3.0 | 0.00 | 0.06 | 0.00 | 92 | 1004.5 |
| 20260504230043 | 32 | 219 | 1.0 | 3.0 | 0.00 | 0.06 | 0.00 | 92 | 1004.3 |
| 20260504225532 | 33 | 145 | 0.0 | 3.0 | 0.00 | 0.06 | 0.00 | 92 | 1004.3 |
| 20260504225034 | 32 | 90 | 0.0 | 3.0 | 0.00 | 0.06 | 0.00 | 92 | 1004.2 |
| 20260504224553 | 32 | 0 | 0.0 | 3.0 | 0.00 | 0.06 | 0.00 | 92 | 1004.0 |
| 20260504224030 | 32 | 0 | 0.0 | 4.0 | 0.00 | 0.06 | 0.00 | 92 | 1003.8 |
| 20260504223532 | 32 | 94 | 0.0 | 4.0 | 0.00 | 0.06 | 0.00 | 92 | 1003.9 |
| 20260504223041 | 32 | 193 | 2.0 | 6.0 | 0.00 | 0.06 | 0.00 | 92 | 1003.9 |
| 20260504222530 | 32 | 217 | 2.0 | 6.0 | 0.00 | 0.06 | 0.00 | 92 | 1003.8 |
| 20260504222030 | 32 | 20 | 2.0 | 6.0 | 0.00 | 0.06 | 0.00 | 92 | 1003.8 |
| 20260504221609 | 32 | 142 | 2.0 | 9.0 | 0.00 | 0.06 | 0.00 | 92 | 1003.7 |
| 20260504221032 | 32 | 94 | 1.0 | 9.0 | 0.00 | 0.06 | 0.00 | 92 | 1003.6 |
| 20260504220530 | 32 | 103 | 1.0 | 9.0 | 0.00 | 0.06 | 0.00 | 92 | 1003.5 |
| 20260504220047 | 32 | 39 | 2.0 | 9.0 | 0.00 | 0.06 | 0.00 | 91 | 1003.5 |
| 20260504215529 | 33 | 38 | 2.0 | 9.0 | 0.00 | 0.06 | 0.06 | 91 | 1003.4 |
| 20260504215031 | 33 | 222 | 2.0 | 6.0 | 0.00 | 0.06 | 0.06 | 91 | 1003.3 |
| 20260504214548 | 33 | 78 | 1.0 | 6.0 | 0.00 | 0.06 | 0.06 | 91 | 1003.5 |
| 20260504214032 | 33 | 122 | 2.0 | 6.0 | 0.00 | 0.06 | 0.06 | 90 | 1003.4 |
| 20260504213531 | 33 | 154 | 1.0 | 6.0 | 0.00 | 0.06 | 0.06 | 90 | 1003.4 |
| 20260504213048 | 33 | 139 | 1.0 | 6.0 | 0.00 | 0.06 | 0.06 | 90 | 1003.3 |
| 20260504212531 | 33 | 128 | 0.0 | 7.0 | 0.00 | 0.06 | 0.06 | 90 | 1003.2 |
| 20260504212034 | 33 | 141 | 1.0 | 7.0 | 0.00 | 0.06 | 0.06 | 89 | 1003.1 |
| 20260504211540 | 33 | 11 | 1.0 | 4.0 | 0.00 | 0.06 | 0.06 | 89 | 1003.0 |
| 20260504211030 | 34 | 0 | 1.0 | 4.0 | 0.00 | 0.06 | 0.06 | 89 | 1003.1 |
| 20260504210530 | 34 | 213 | 1.0 | 4.0 | 0.00 | 0.06 | 0.06 | 88 | 1003.0 |
| 20260504210055 | 34 | 0 | 0.0 | 7.0 | 0.00 | 0.06 | 0.06 | 88 | 1003.1 |
| 20260504205531 | 34 | 233 | 1.0 | 7.0 | 0.00 | 0.06 | 0.06 | 88 | 1003.1 |
| 20260504205029 | 34 | 127 | 0.0 | 5.0 | 0.00 | 0.06 | 0.06 | 88 | 1002.9 |
| 20260504204619 | 34 | 0 | 0.0 | 5.0 | 0.00 | 0.06 | 0.06 | 88 | 1002.9 |
| 20260504204030 | 34 | 290 | 1.0 | 5.0 | 0.00 | 0.06 | 0.06 | 88 | 1003.0 |
| 20260504203535 | 34 | 139 | 1.0 | 5.0 | 0.00 | 0.06 | 0.06 | 88 | 1002.9 |
| 20260504203044 | 34 | 121 | 0.0 | 4.0 | 0.00 | 0.06 | 0.06 | 88 | 1003.0 |
| 20260504202531 | 34 | 91 | 1.0 | 6.0 | 0.00 | 0.06 | 0.06 | 88 | 1002.9 |
| 20260504202030 | 34 | 168 | 1.0 | 6.0 | 0.00 | 0.06 | 0.06 | 88 | 1003.0 |
| 20260504201542 | 34 | 142 | 1.0 | 4.0 | 0.00 | 0.06 | 0.06 | 88 | 1002.9 |
| 20260504201030 | 34 | 108 | 0.0 | 4.0 | 0.00 | 0.06 | 0.06 | 88 | 1002.9 |
| 20260504200530 | 34 | 0 | 0.0 | 6.0 | 0.00 | 0.06 | 0.06 | 87 | 1003.0 |
| 20260504200053 | 34 | 279 | 1.0 | 6.0 | 0.00 | 0.06 | 0.06 | 87 | 1002.9 |
| 20260504195530 | 34 | 174 | 1.0 | 5.0 | 0.00 | 0.06 | 0.06 | 86 | 1002.9 |
| 20260504195031 | 34 | 105 | 2.0 | 6.0 | 0.00 | 0.06 | 0.06 | 85 | 1002.9 |
| 20260504194551 | 35 | 90 | 1.0 | 7.0 | 0.00 | 0.06 | 0.06 | 84 | 1002.9 |
| 20260504194031 | 35 | 160 | 2.0 | 7.0 | 0.00 | 0.06 | 0.06 | 83 | 1002.9 |
| 20260504193530 | 35 | 127 | 1.0 | 7.0 | 0.00 | 0.06 | 0.06 | 83 | 1002.8 |
| 20260504193045 | 35 | 97 | 2.0 | 7.0 | 0.00 | 0.06 | 0.06 | 82 | 1002.8 |
| 20260504192531 | 35 | 5 | 1.0 | 6.0 | 0.00 | 0.06 | 0.06 | 82 | 1002.9 |
| 20260504192031 | 35 | 325 | 1.0 | 6.0 | 0.00 | 0.06 | 0.06 | 82 | 1002.7 |
| 20260504191544 | 35 | 88 | 1.0 | 6.0 | 0.00 | 0.06 | 0.06 | 82 | 1002.7 |
| 20260504191033 | 35 | 125 | 1.0 | 8.0 | 0.00 | 0.06 | 0.06 | 82 | 1002.6 |
| 20260504190531 | 35 | 174 | 3.0 | 11.0 | 0.00 | 0.06 | 0.06 | 82 | 1002.7 |
| 20260504190050 | 35 | 119 | 3.0 | 11.0 | 0.00 | 0.06 | 0.06 | 82 | 1002.5 |
| 20260504185530 | 35 | 49 | 3.0 | 6.0 | 0.00 | 0.06 | 0.06 | 82 | 1002.4 |
| 20260504185030 | 36 | 94 | 1.0 | 5.0 | 0.00 | 0.06 | 0.06 | 81 | 1002.4 |
| 20260504184558 | 36 | 194 | 1.0 | 8.0 | 0.00 | 0.06 | 0.06 | 81 | 1002.3 |
| 20260504184030 | 36 | 139 | 1.0 | 8.0 | 0.00 | 0.06 | 0.06 | 82 | 1002.4 |
| 20260504183530 | 36 | 195 | 1.0 | 6.0 | 0.00 | 0.06 | 0.06 | 82 | 1002.4 |
| 20260504183039 | 36 | 0 | 2.0 | 8.0 | 0.00 | 0.06 | 0.06 | 82 | 1002.4 |
| 20260504182532 | 35 | 145 | 1.0 | 10.0 | 0.00 | 0.06 | 0.06 | 82 | 1002.4 |
| 20260504182034 | 36 | 146 | 5.0 | 10.0 | 0.00 | 0.06 | 0.06 | 82 | 1002.3 |
| 20260504181542 | 36 | 132 | 2.0 | 10.0 | 0.00 | 0.06 | 0.06 | 82 | 1002.2 |
| 20260504181030 | 36 | 145 | 2.0 | 10.0 | 0.00 | 0.06 | 0.06 | 81 | 1002.3 |
| 20260504180530 | 36 | 160 | 2.0 | 7.0 | 0.00 | 0.06 | 0.06 | 80 | 1002.3 |
| 20260504180042 | 36 | 92 | 1.0 | 7.0 | 0.00 | 0.06 | 0.06 | 79 | 1002.2 |
| 20260504175531 | 36 | 108 | 2.0 | 9.0 | 0.00 | 0.06 | 0.06 | 79 | 1002.1 |
| 20260504175030 | 36 | 109 | 2.0 | 9.0 | 0.00 | 0.06 | 0.06 | 78 | 1002.2 |
| 20260504174542 | 36 | 59 | 3.0 | 9.0 | 0.00 | 0.06 | 0.06 | 78 | 1002.1 |
| 20260504174031 | 36 | 25 | 2.0 | 12.0 | 0.00 | 0.06 | 0.06 | 79 | 1002.1 |
| 20260504173533 | 36 | 134 | 4.0 | 13.0 | 0.00 | 0.06 | 0.06 | 79 | 1002.0 |
| 20260504173041 | 36 | 15 | 4.0 | 13.0 | 0.00 | 0.06 | 0.06 | 78 | 1002.1 |
| 20260504172530 | 37 | 152 | 4.0 | 9.0 | 0.00 | 0.06 | 0.06 | 77 | 1001.7 |
| 20260504172030 | 37 | 159 | 2.0 | 8.0 | 0.00 | 0.06 | 0.06 | 78 | 1002.1 |
| 20260504171546 | 37 | 97 | 2.0 | 11.0 | 0.00 | 0.06 | 0.06 | 77 | 1001.8 |
| 20260504171031 | 37 | 283 | 4.0 | 13.0 | 0.00 | 0.06 | 0.06 | 76 | 1001.7 |
| 20260504170531 | 37 | 204 | 4.0 | 13.0 | 0.00 | 0.06 | 0.06 | 75 | 1001.5 |
| 20260504151034 | 42 | 202 | 4.0 | 14.0 | 0.00 | 0.06 | 0.06 | 60 | 1001.4 |
| 20260504150530 | 42 | 183 | 2.0 | 12.0 | 0.00 | 0.06 | 0.06 | 62 | 1001.5 |
| 20260504141031 | 42 | 162 | 2.0 | 11.0 | 0.00 | 0.06 | 0.06 | 65 | 1001.7 |
| 20260504140531 | 42 | 142 | 3.0 | 11.0 | 0.00 | 0.06 | 0.06 | 58 | 1001.6 |
| 20260504130530 | 43 | 212 | 1.0 | 13.0 | 0.00 | 0.06 | 0.06 | 67 | 1001.1 |
| 20260504110530 | 40 | 131 | 3.0 | 12.0 | 0.01 | 0.06 | 0.06 | 78 | 1000.8 |
| 20260504100529 | 43 | 111 | 5.0 | 13.0 | 0.00 | 0.05 | 0.05 | 59 | 1000.6 |
| 20260504081540 | 41 | 200 | 4.0 | 15.0 | 0.01 | 0.05 | 0.05 | 76 | 1000.8 |
| 20260504081030 | 40 | 91 | 3.0 | 11.0 | 0.01 | 0.05 | 0.05 | 80 | 1000.8 |
| 20260504080532 | 39 | 64 | 4.0 | 16.0 | 0.01 | 0.05 | 0.05 | 80 | 1000.7 |
| 20260504050530 | 37 | 346 | 0.0 | 4.0 | 0.01 | 0.01 | 0.01 | 87 | 1000.2 |
| 20260504045529 | 38 | 192 | 2.0 | 6.0 | 0.00 | 0.00 | 0.00 | 85 | 1000.0 |
| 20260504045029 | 37 | 83 | 2.0 | 7.0 | 0.00 | 0.00 | 0.00 | 85 | 999.8 |
| 20260504044543 | 37 | 250 | 1.0 | 7.0 | 0.00 | 0.00 | 0.00 | 84 | 999.7 |
| 20260504044032 | 37 | 150 | 1.0 | 6.0 | 0.00 | 0.00 | 0.00 | 83 | 999.7 |
| 20260504043531 | 37 | 141 | 2.0 | 6.0 | 0.00 | 0.00 | 0.00 | 83 | 999.7 |
| 20260504043040 | 37 | 143 | 3.0 | 6.0 | 0.00 | 0.00 | 0.00 | 83 | 999.5 |
| 20260504042531 | 37 | 143 | 1.0 | 8.0 | 0.00 | 0.00 | 0.00 | 82 | 999.6 |
| 20260504042033 | 37 | 139 | 2.0 | 8.0 | 0.00 | 0.00 | 0.00 | 82 | 999.6 |
| 20260504041549 | 37 | 162 | 2.0 | 6.0 | 0.00 | 0.00 | 0.00 | 81 | 999.5 |
| 20260504041030 | 38 | 149 | 1.0 | 4.0 | 0.00 | 0.00 | 0.00 | 81 | 999.6 |
| 20260504040530 | 38 | 141 | 1.0 | 4.0 | 0.00 | 0.00 | 0.00 | 80 | 999.5 |
| 20260504040048 | 38 | 89 | 0.0 | 6.0 | 0.00 | 0.00 | 0.00 | 79 | 999.6 |
| 20260504035530 | 38 | 148 | 2.0 | 6.0 | 0.00 | 0.00 | 0.00 | 79 | 999.6 |
| 20260504035029 | 38 | 148 | 2.0 | 8.0 | 0.00 | 0.00 | 0.00 | 78 | 999.7 |
| 20260504034600 | 39 | 102 | 2.0 | 8.0 | 0.00 | 0.00 | 0.00 | 78 | 999.7 |
| 20260504034029 | 39 | 146 | 2.0 | 7.0 | 0.00 | 0.00 | 0.00 | 77 | 999.6 |
| 20260504033532 | 39 | 0 | 1.0 | 6.0 | 0.00 | 0.00 | 0.00 | 77 | 999.7 |
| 20260504033048 | 38 | 88 | 1.0 | 6.0 | 0.00 | 0.00 | 0.00 | 77 | 999.6 |
| 20260504032531 | 38 | 118 | 0.0 | 5.0 | 0.00 | 0.00 | 0.00 | 78 | 999.7 |
| 20260504032031 | 37 | 0 | 0.0 | 5.0 | 0.00 | 0.00 | 0.00 | 79 | 999.8 |
| 20260504031542 | 37 | 124 | 0.0 | 3.0 | 0.00 | 0.00 | 0.00 | 79 | 999.9 |
| 20260504031029 | 37 | 0 | 1.0 | 3.0 | 0.00 | 0.00 | 0.00 | 79 | 999.7 |
| 20260504030530 | 37 | 0 | 0.0 | 2.0 | 0.00 | 0.00 | 0.00 | 80 | 999.7 |
| 20260504030049 | 37 | 125 | 0.0 | 1.0 | 0.00 | 0.00 | 0.00 | 80 | 999.7 |
| 20260504025530 | 37 | 0 | 0.0 | 2.0 | 0.00 | 0.00 | 0.00 | 81 | 999.6 |
| 20260504025032 | 37 | 148 | 0.0 | 2.0 | 0.00 | 0.00 | 0.00 | 81 | 999.6 |
| 20260504024542 | 37 | 132 | 0.0 | 4.0 | 0.00 | 0.00 | 0.00 | 81 | 999.6 |
| 20260504024034 | 36 | 0 | 1.0 | 4.0 | 0.00 | 0.00 | 0.00 | 82 | 999.7 |
| 20260504023530 | 36 | 0 | 0.0 | 1.0 | 0.00 | 0.00 | 0.00 | 84 | 999.6 |
| 20260504023045 | 36 | 0 | 0.0 | 3.0 | 0.00 | 0.00 | 0.00 | 83 | 999.7 |
| 20260504022528 | 36 | 0 | 0.0 | 3.0 | 0.00 | 0.00 | 0.00 | 84 | 999.6 |
| 20260504022029 | 36 | 0 | 0.0 | 2.0 | 0.00 | 0.00 | 0.00 | 84 | 999.6 |
| 20260504021543 | 36 | 0 | 0.0 | 2.0 | 0.00 | 0.00 | 0.00 | 84 | 999.6 |
| 20260504021033 | 36 | 82 | 0.0 | 2.0 | 0.00 | 0.00 | 0.00 | 83 | 999.6 |
| 20260504020529 | 36 | 0 | 0.0 | 1.0 | 0.00 | 0.00 | 0.00 | 83 | 999.7 |
| 20260504020041 | 36 | 0 | 0.0 | 1.0 | 0.00 | 0.00 | 0.00 | 83 | 999.6 |
| 20260504015531 | 36 | 0 | 0.0 | 0.0 | 0.00 | 0.00 | 0.00 | 84 | 999.7 |
| 20260504015030 | 36 | 0 | 0.0 | 0.0 | 0.00 | 0.00 | 0.00 | 85 | 999.8 |
| 20260504014553 | 36 | 0 | 0.0 | 0.0 | 0.00 | 0.00 | 0.00 | 85 | 999.8 |
| 20260504014033 | 36 | 0 | 0.0 | 0.0 | 0.00 | 0.00 | 0.00 | 85 | 999.8 |
| 20260504013532 | 36 | 0 | 0.0 | 0.0 | 0.00 | 0.00 | 0.00 | 85 | 999.8 |
| 20260504013042 | 35 | 0 | 0.0 | 1.0 | 0.00 | 0.00 | 0.00 | 85 | 999.9 |
| 20260504012530 | 35 | 0 | 0.0 | 2.0 | 0.00 | 0.00 | 0.00 | 85 | 1000.0 |
| 20260504012030 | 36 | 0 | 0.0 | 2.0 | 0.00 | 0.00 | 0.00 | 83 | 1000.0 |
| 20260504011544 | 36 | 0 | 0.0 | 3.0 | 0.00 | 0.00 | 0.00 | 83 | 999.9 |
| 20260504011029 | 36 | 0 | 0.0 | 3.0 | 0.00 | 0.00 | 0.00 | 83 | 1000.1 |
| 20260504010530 | 36 | 140 | 0.0 | 4.0 | 0.00 | 0.00 | 0.00 | 84 | 1000.2 |
| 20260504010045 | 36 | 116 | 0.0 | 4.0 | 0.00 | 0.00 | 0.00 | 84 | 1000.3 |
| 20260504005531 | 36 | 0 | 0.0 | 3.0 | 0.00 | 0.00 | 0.00 | 84 | 1000.3 |
| 20260504005031 | 36 | 165 | 0.0 | 3.0 | 0.00 | 0.00 | 0.00 | 84 | 1000.3 |
| 20260504004543 | 36 | 138 | 1.0 | 2.0 | 0.00 | 0.00 | 0.00 | 84 | 1000.5 |
| 20260504004030 | 36 | 147 | 1.0 | 2.0 | 0.00 | 0.00 | 0.00 | 84 | 1000.6 |